TimeEDT,TemperatureF,Dew PointF,Humidity,Sea Level PressureIn,VisibilityMPH,Wind Direction,Wind SpeedMPH,Gust SpeedMPH,PrecipitationIn,Events,Conditions,WindDirDegrees,DateUTC
12:44 AM,66.2,64.4,94,29.87,4.0,Calm,Calm,-,0.04,Rain,Rain,0,2013-08-02 04:44:00
12:51 AM,65.8,64.9,97,30.59,2.5,Calm,Calm,-,0.05,Rain,Light Rain,0,2013-08-02 04:51:00
12:56 AM,64.4,64.4,100,29.87,3.0,Calm,Calm,-,0.01,Rain,Light Rain,0,2013-08-02 04:56:00
1:33 AM,66.2,64.4,94,29.86,2.5,Calm,Calm,-,0.05,Rain,Heavy Rain,0,2013-08-02 05:33:00
1:51 AM,64.9,64.9,100,30.56,2.0,Variable,3.5,-,0.13,Rain,Heavy Rain,0,2013-08-02 05:51:00
2:15 AM,64.4,64.4,100,29.84,3.0,Calm,Calm,-,0.08,Rain,Light Rain,0,2013-08-02 06:15:00
2:18 AM,64.4,64.4,100,29.84,2.0,Calm,Calm,-,0.10,Rain,Rain,0,2013-08-02 06:18:00
2:26 AM,64.4,64.4,100,29.84,1.5,Calm,Calm,-,0.14,Rain,Heavy Rain,0,2013-08-02 06:26:00
2:32 AM,64.4,64.4,100,29.83,2.5,Calm,Calm,-,0.15,Rain,Light Rain,0,2013-08-02 06:32:00
2:38 AM,64.4,64.4,100,29.83,2.5,Calm,Calm,-,0.17,Rain,Rain,0,2013-08-02 06:38:00
2:51 AM,64.9,63.9,96,30.54,2.0,Calm,Calm,-,0.24,Rain,Heavy Rain,0,2013-08-02 06:51:00
2:59 AM,64.4,64.4,100,29.82,1.8,Calm,Calm,-,0.05,Rain,Heavy Rain,0,2013-08-02 06:59:00
3:05 AM,64.4,64.4,100,29.82,2.5,Calm,Calm,-,0.06,Rain,Rain,0,2013-08-02 07:05:00
3:51 AM,64.9,63.9,96,30.53,2.5,Calm,Calm,-,0.21,Rain,Rain,0,2013-08-02 07:51:00
3:58 AM,64.4,64.4,100,29.82,5.0,Calm,Calm,-,0.00,Rain,Light Rain,0,2013-08-02 07:58:00
4:51 AM,64.9,63.9,96,30.54,5.0,Calm,Calm,-,0.03,Rain,Light Rain,0,2013-08-02 08:51:00
5:39 AM,64.4,64.4,100,29.83,9.0,Calm,Calm,-,0.01,,Mostly Cloudy,0,2013-08-02 09:39:00
5:51 AM,64.9,63.9,96,30.55,10.0,Calm,Calm,-,0.01,,Scattered Clouds,0,2013-08-02 09:51:00
6:33 AM,64.4,64.4,100,29.82,9.0,Calm,Calm,-,0.00,,Mostly Cloudy,0,2013-08-02 10:33:00
6:51 AM,64.9,63.9,96,30.56,8.0,Calm,Calm,-,0.00,,Mostly Cloudy,0,2013-08-02 10:51:00
7:51 AM,65.8,64.9,97,30.56,10.0,Calm,Calm,-,N/A,,Mostly Cloudy,0,2013-08-02 11:51:00
8:19 AM,66.2,64.4,94,29.83,10.0,Calm,Calm,-,N/A,,Mostly Cloudy,0,2013-08-02 12:19:00
8:43 AM,66.2,66.2,100,29.84,10.0,Calm,Calm,-,N/A,,Mostly Cloudy,0,2013-08-02 12:43:00
8:51 AM,66.9,64.9,93,30.55,10.0,Calm,Calm,-,N/A,,Mostly Cloudy,0,2013-08-02 12:51:00
9:01 AM,68.0,66.2,94,29.83,10.0,Calm,Calm,-,N/A,,Mostly Cloudy,0,2013-08-02 13:01:00
9:18 AM,69.8,64.4,83,29.84,10.0,Variable,3.5,-,N/A,,Scattered Clouds,0,2013-08-02 13:18:00
9:25 AM,69.8,64.4,83,29.83,10.0,Calm,Calm,-,N/A,,Mostly Cloudy,0,2013-08-02 13:25:00
9:32 AM,71.6,64.4,78,29.83,10.0,Calm,Calm,-,N/A,,Mostly Cloudy,0,2013-08-02 13:32:00
9:51 AM,72.0,64.9,78,30.55,10.0,NW,3.5,-,N/A,,Mostly Cloudy,310,2013-08-02 13:51:00
10:11 AM,73.4,64.4,73,29.83,10.0,NNW,6.9,-,N/A,,Scattered Clouds,340,2013-08-02 14:11:00
10:51 AM,74.8,63.0,66,30.54,10.0,NNW,9.2,-,N/A,,Partly Cloudy,340,2013-08-02 14:51:00
11:51 AM,77.9,63.9,62,30.54,10.0,Calm,Calm,-,N/A,,Mostly Cloudy,0,2013-08-02 15:51:00
12:51 PM,79.0,61.0,54,30.53,10.0,Calm,Calm,-,N/A,,Mostly Cloudy,0,2013-08-02 16:51:00
1:51 PM,81.9,61.0,49,30.52,10.0,Calm,Calm,-,N/A,,Scattered Clouds,0,2013-08-02 17:51:00
2:51 PM,82.9,56.8,41,30.52,10.0,WNW,9.2,-,N/A,,Scattered Clouds,290,2013-08-02 18:51:00
3:51 PM,82.9,55.9,39,30.51,10.0,West,9.2,-,N/A,,Scattered Clouds,260,2013-08-02 19:51:00
4:51 PM,81.9,54.9,39,30.52,10.0,WNW,5.8,19.6,N/A,,Scattered Clouds,290,2013-08-02 20:51:00
5:51 PM,81.9,54.0,38,30.52,10.0,WNW,8.1,13.8,N/A,,Scattered Clouds,290,2013-08-02 21:51:00
6:51 PM,79.9,55.9,44,30.53,10.0,West,3.5,-,N/A,,Scattered Clouds,280,2013-08-02 22:51:00
7:51 PM,73.9,59.0,59,30.56,10.0,Calm,Calm,-,N/A,,Scattered Clouds,0,2013-08-02 23:51:00
8:51 PM,70.0,59.9,70,30.57,10.0,Calm,Calm,-,N/A,,Clear,0,2013-08-03 00:51:00
9:51 PM,68.9,59.9,73,30.58,10.0,Calm,Calm,-,N/A,,Scattered Clouds,0,2013-08-03 01:51:00
10:51 PM,70.0,59.0,68,30.58,10.0,Variable,3.5,-,0.00,,Scattered Clouds,0,2013-08-03 02:51:00
11:51 PM,68.0,59.0,73,30.58,10.0,Variable,3.5,-,N/A,,Clear,0,2013-08-03 03:51:00